When you browse on this site, cookies collect data to enhance your experience and personalize the content and advertising you see.
Visit our Privacy Policy to learn more. By continuing to use the site, you agree to this use of cookies and data.
  • In Latvia
  • List of Countries
  • For 7 days
  • Water Temperature
  • Satellite Maps
  • Weather Map
  • Weather Widgets
  • user-avatar
    Login

    Hourly Weather Chakhansur

    Today, 17 February, Sunday

    Time Temperature Precipitation Wind Pressure Humidity
    00:00 +15°C° 0 mm 4 mps 716 mmHg 37%
    01:00 +15°C° 0 mm 4 mps 715 mmHg 38%
    02:00 +14°C° 0 mm 3 mps 715 mmHg 39%
    03:00 +15°C° 0 mm 2 mps 715 mmHg 41%
    04:00 +14°C° 0 mm 2 mps 715 mmHg 43%
    05:00 +14°C° 0 mm 2 mps 715 mmHg 43%
    06:00 +14°C° 0 mm 1 mps 716 mmHg 43%
    07:00 +14°C° 0 mm 1 mps 716 mmHg 43%
    08:00 +15°C° 0 mm 1 mps 716 mmHg 43%
    09:00 +15°C° 0 mm 1 mps 716 mmHg 43%
    10:00 +16°C° 0 mm 1 mps 717 mmHg 40%
    11:00 +16°C° 0 mm 1 mps 716 mmHg 38%
    12:00 +18°C° 0 mm 1 mps 716 mmHg 36%
    13:00 +19°C° 0 mm 1 mps 715 mmHg 34%
    14:00 +20°C° 0 mm 1 mps 715 mmHg 33%
    15:00 +21°C° 0 mm 1 mps 715 mmHg 31%
    16:00 +21°C° 0 mm 1 mps 715 mmHg 30%
    17:00 +20°C° 0 mm 1 mps 714 mmHg 32%
    18:00 +18°C° 0 mm 2 mps 714 mmHg 34%
    19:00 +18°C° 0 mm 2 mps 714 mmHg 36%
    20:00 +17°C° 0 mm 2 mps 714 mmHg 37%
    21:00 +17°C° 0 mm 2 mps 714 mmHg 37%
    22:00 +17°C° 0 mm 2 mps 714 mmHg 38%
    23:00 +17°C° 0 mm 2 mps 714 mmHg 39%

    Tomorrow, 18 February, Monday

    Time Temperature Precipitation Wind Pressure Humidity
    00:00 +17°C° 0 mm 2 mps 714 mmHg 39%
    01:00 +17°C° 0 mm 2 mps 714 mmHg 39%
    02:00 +16°C° 0.1 mm 2 mps 714 mmHg 41%
    03:00 +16°C° 0.1 mm 2 mps 714 mmHg 42%
    04:00 +16°C° 0.1 mm 2 mps 714 mmHg 44%
    05:00 +14°C° 0 mm 3 mps 714 mmHg 45%
    06:00 +14°C° 0 mm 4 mps 714 mmHg 46%
    07:00 +13°C° 0 mm 5 mps 715 mmHg 47%
    08:00 +14°C° 0 mm 5 mps 715 mmHg 41%
    09:00 +17°C° 0 mm 4 mps 716 mmHg 36%
    10:00 +18°C° 0 mm 4 mps 717 mmHg 30%
    11:00 +19°C° 0 mm 4 mps 716 mmHg 27%
    12:00 +19°C° 0 mm 3 mps 716 mmHg 25%
    13:00 +20°C° 0 mm 3 mps 716 mmHg 23%
    14:00 +20°C° 0 mm 3 mps 715 mmHg 22%
    15:00 +20°C° 0 mm 3 mps 715 mmHg 21%
    16:00 +20°C° 0 mm 2 mps 715 mmHg 20%
    17:00 +19°C° 0 mm 2 mps 715 mmHg 23%
    18:00 +18°C° 0 mm 2 mps 714 mmHg 25%
    19:00 +19°C° 0 mm 1 mps 714 mmHg 27%
    20:00 +18°C° 0 mm 1 mps 714 mmHg 27%
    21:00 +17°C° 0 mm 2 mps 714 mmHg 27%
    22:00 +16°C° 0 mm 2 mps 714 mmHg 27%
    23:00 +16°C° 0 mm 2 mps 714 mmHg 29%

    Day after tomorrow, 19 February, Tuesday

    Time Temperature Precipitation Wind Pressure Humidity
    00:00 +15°C° 0 mm 2 mps 714 mmHg 31%
    01:00 +14°C° 0 mm 3 mps 714 mmHg 32%
    02:00 +14°C° 0 mm 3 mps 713 mmHg 36%
    03:00 +13°C° 0 mm 3 mps 713 mmHg 40%
    04:00 +13°C° 0 mm 3 mps 713 mmHg 44%
    05:00 +13°C° 0 mm 3 mps 713 mmHg 45%
    06:00 +12°C° 0 mm 3 mps 713 mmHg 46%
    07:00 +12°C° 0 mm 3 mps 713 mmHg 47%
    08:00 +14°C° 0 mm 3 mps 714 mmHg 42%
    09:00 +17°C° 0 mm 4 mps 714 mmHg 37%
    10:00 +19°C° 0 mm 4 mps 714 mmHg 32%
    11:00 +20°C° 0 mm 4 mps 714 mmHg 30%
    12:00 +21°C° 0 mm 4 mps 714 mmHg 28%
    13:00 +22°C° 0 mm 4 mps 714 mmHg 27%
    14:00 +22°C° 0 mm 4 mps 713 mmHg 26%
    15:00 +22°C° 0 mm 3 mps 713 mmHg 25%
    16:00 +22°C° 0 mm 3 mps 713 mmHg 24%
    17:00 +21°C° 0 mm 2 mps 713 mmHg 26%
    18:00 +20°C° 0 mm 2 mps 713 mmHg 29%
    19:00 +20°C° 0 mm 1 mps 713 mmHg 31%
    20:00 +18°C° 0 mm 2 mps 714 mmHg 31%
    21:00 +18°C° 0 mm 2 mps 714 mmHg 31%
    22:00 +18°C° 0 mm 3 mps 714 mmHg 32%
    23:00 +17°C° 0 mm 2 mps 714 mmHg 33%

    20 February, Wednesday

    Time Temperature Precipitation Wind Pressure Humidity
    00:00 +17°C° 0 mm 2 mps 714 mmHg 34%
    01:00 +18°C° 0 mm 1 mps 714 mmHg 35%
    02:00 +16°C° 0 mm 2 mps 715 mmHg 37%
    03:00 +16°C° 0 mm 3 mps 715 mmHg 39%
    04:00 +15°C° 0 mm 4 mps 715 mmHg 42%
    05:00 +14°C° 0.1 mm 5 mps 715 mmHg 47%
    06:00 +13°C° 0.1 mm 6 mps 716 mmHg 52%
    07:00 +11°C° 0.1 mm 7 mps 716 mmHg 57%
    08:00 +11°C° 0.3 mm 8 mps 717 mmHg 58%
    09:00 +11°C° 0.3 mm 8 mps 717 mmHg 59%
    10:00 +11°C° 0.3 mm 8 mps 718 mmHg 60%
    11:00 +11°C° 0.7 mm 9 mps 718 mmHg 58%
    12:00 +11°C° 0.7 mm 9 mps 717 mmHg 57%
    13:00 +11°C° 0.7 mm 10 mps 717 mmHg 55%
    14:00 +12°C° 0 mm 10 mps 717 mmHg 49%
    15:00 +12°C° 0 mm 10 mps 717 mmHg 44%
    16:00 +13°C° 0 mm 10 mps 717 mmHg 38%
    17:00 +12°C° 0 mm 10 mps 718 mmHg 39%
    18:00 +11°C° 0 mm 10 mps 719 mmHg 40%
    19:00 +9°C° 0 mm 10 mps 719 mmHg 41%
    20:00 +8°C° 0 mm 10 mps 720 mmHg 42%
    21:00 +7°C° 0 mm 11 mps 720 mmHg 43%
    22:00 +6°C° 0 mm 11 mps 721 mmHg 44%
    23:00 +6°C° 0 mm 11 mps 721 mmHg 45%

    21 February, Thursday

    Time Temperature Precipitation Wind Pressure Humidity
    00:00 +4°C° 0 mm 11 mps 721 mmHg 45%
    01:00 +3°C° 0 mm 11 mps 721 mmHg 46%
    02:00 +3°C° 0 mm 11 mps 722 mmHg 46%
    03:00 +2°C° 0 mm 11 mps 722 mmHg 46%
    04:00 +1°C° 0 mm 11 mps 722 mmHg 45%
    05:00 +1°C° 0 mm 10 mps 723 mmHg 45%
    06:00 +1°C° 0 mm 10 mps 723 mmHg 44%
    07:00 0°C° 0 mm 10 mps 724 mmHg 43%
    08:00 +1°C° 0 mm 10 mps 724 mmHg 40%
    09:00 +2°C° 0 mm 10 mps 725 mmHg 37%
    10:00 +3°C° 0 mm 10 mps 725 mmHg 33%
    11:00 +5°C° 0 mm 10 mps 725 mmHg 31%
    12:00 +6°C° 0 mm 9 mps 724 mmHg 29%
    13:00 +7°C° 0 mm 9 mps 724 mmHg 26%
    14:00 +9°C° 0 mm 8 mps 723 mmHg 26%
    15:00 +9°C° 0 mm 8 mps 723 mmHg 25%
    16:00 +9°C° 0 mm 7 mps 723 mmHg 24%
    17:00 +8°C° 0 mm 5 mps 723 mmHg 26%
    18:00 +8°C° 0 mm 4 mps 723 mmHg 28%
    19:00 +8°C° 0 mm 2 mps 724 mmHg 31%
    20:00 +8°C° 0 mm 2 mps 724 mmHg 33%
    21:00 +7°C° 0 mm 3 mps 724 mmHg 34%
    22:00 +7°C° 0 mm 3 mps 724 mmHg 36%
    23:00 +7°C° 0 mm 3 mps 724 mmHg 38%

    22 February, Friday

    Time Temperature Precipitation Wind Pressure Humidity
    00:00 +6°C° 0 mm 2 mps 724 mmHg 40%
    01:00 +6°C° 0 mm 2 mps 724 mmHg 42%
    02:00 +5°C° 0 mm 2 mps 723 mmHg 43%
    03:00 +5°C° 0 mm 2 mps 723 mmHg 44%
    04:00 +6°C° 0 mm 1 mps 723 mmHg 45%
    05:00 +5°C° 0 mm 1 mps 723 mmHg 45%
    06:00 +5°C° 0 mm 1 mps 723 mmHg 45%
    07:00 +5°C° 0 mm 1 mps 723 mmHg 46%
    08:00 +7°C° 0 mm 1 mps 724 mmHg 40%
    09:00 +8°C° 0 mm 1 mps 724 mmHg 34%
    10:00 +10°C° 0 mm 1 mps 724 mmHg 28%
    11:00 +11°C° 0 mm 1 mps 724 mmHg 26%
    12:00 +12°C° 0 mm 1 mps 723 mmHg 23%
    13:00 +13°C° 0 mm 1 mps 722 mmHg 21%
    14:00 +14°C° 0 mm 2 mps 722 mmHg 20%
    15:00 +14°C° 0 mm 2 mps 722 mmHg 20%
    16:00 +15°C° 0 mm 2 mps 721 mmHg 19%
    17:00 +14°C° 0 mm 2 mps 721 mmHg 21%
    18:00 +14°C° 0 mm 2 mps 721 mmHg 23%
    19:00 +13°C° 0 mm 2 mps 722 mmHg 25%
    20:00 +13°C° 0 mm 2 mps 722 mmHg 26%
    21:00 +11°C° 0 mm 3 mps 722 mmHg 27%
    22:00 +11°C° 0 mm 3 mps 722 mmHg 28%
    23:00 +10°C° 0 mm 3 mps 722 mmHg 28%
    Show more